• En Estados Unidos
  • Lista de países
  • Para 7 días
  • Temperatura del agua
  • Mapa Satelital
  • El tiempo en el mapa
  • Informadores
  • user-avatar
    Iniciar sesión

    Tiempo cada hora Ordino

    Hoy, 25 Septiembre, Martes

    Tiempo Temperatura Precipitaciones Viento Presión Humedad
    00:00 +7°C° 0 mm 2 mps 639 mmHg 62%
    01:00 +7°C° 0 mm 2 mps 639 mmHg 61%
    02:00 +8°C° 0 mm 1 mps 639 mmHg 60%
    03:00 +7°C° 0 mm 1 mps 639 mmHg 59%
    04:00 +7°C° 0 mm 1 mps 639 mmHg 61%
    05:00 +7°C° 0 mm 1 mps 639 mmHg 62%
    06:00 +7°C° 0 mm 1 mps 639 mmHg 64%
    07:00 +9°C° 0 mm 1 mps 640 mmHg 60%
    08:00 +12°C° 0 mm 1 mps 641 mmHg 56%
    09:00 +14°C° 0 mm 1 mps 642 mmHg 51%
    10:00 +15°C° 0 mm 2 mps 642 mmHg 49%
    11:00 +16°C° 0 mm 2 mps 643 mmHg 47%
    12:00 +17°C° 0 mm 2 mps 643 mmHg 45%
    13:00 +17°C° 0 mm 2 mps 643 mmHg 48%
    14:00 +17°C° 0 mm 2 mps 642 mmHg 51%
    15:00 +16°C° 0 mm 2 mps 642 mmHg 54%
    16:00 +15°C° 0 mm 2 mps 642 mmHg 61%
    17:00 +13°C° 0 mm 2 mps 641 mmHg 68%
    18:00 +12°C° 0 mm 1 mps 641 mmHg 75%
    19:00 +11°C° 0 mm 1 mps 641 mmHg 78%
    20:00 +10°C° 0 mm 1 mps 641 mmHg 81%
    21:00 +10°C° 0 mm 1 mps 641 mmHg 85%
    22:00 +10°C° 0 mm 1 mps 641 mmHg 84%
    23:00 +8°C° 0 mm 2 mps 641 mmHg 84%

    Mañana, 26 Septiembre, Miércoles

    Tiempo Temperatura Precipitaciones Viento Presión Humedad
    00:00 +8°C° 0 mm 2 mps 641 mmHg 84%
    01:00 +8°C° 0 mm 2 mps 641 mmHg 83%
    02:00 +8°C° 0 mm 2 mps 641 mmHg 82%
    03:00 +8°C° 0 mm 2 mps 641 mmHg 81%
    04:00 +7°C° 0 mm 2 mps 641 mmHg 80%
    05:00 +7°C° 0 mm 2 mps 641 mmHg 79%
    06:00 +7°C° 0 mm 2 mps 641 mmHg 78%
    07:00 +10°C° 0 mm 2 mps 642 mmHg 70%
    08:00 +13°C° 0 mm 2 mps 644 mmHg 62%
    09:00 +16°C° 0 mm 3 mps 645 mmHg 54%
    10:00 +17°C° 0 mm 3 mps 645 mmHg 50%
    11:00 +18°C° 0 mm 3 mps 645 mmHg 46%
    12:00 +19°C° 0 mm 3 mps 646 mmHg 42%
    13:00 +19°C° 0 mm 3 mps 646 mmHg 43%
    14:00 +19°C° 0 mm 3 mps 645 mmHg 44%
    15:00 +19°C° 0 mm 3 mps 645 mmHg 45%
    16:00 +17°C° 0 mm 3 mps 644 mmHg 54%
    17:00 +15°C° 0 mm 2 mps 644 mmHg 62%
    18:00 +12°C° 0 mm 2 mps 643 mmHg 71%
    19:00 +12°C° 0 mm 2 mps 643 mmHg 74%
    20:00 +11°C° 0 mm 1 mps 643 mmHg 77%
    21:00 +10°C° 0 mm 1 mps 643 mmHg 80%
    22:00 +10°C° 0 mm 1 mps 643 mmHg 80%
    23:00 +10°C° 0 mm 1 mps 643 mmHg 80%

    Pasado mañana, 27 Septiembre, Jueves

    Tiempo Temperatura Precipitaciones Viento Presión Humedad
    00:00 +10°C° 0 mm 1 mps 643 mmHg 80%
    01:00 +9°C° 0 mm 1 mps 642 mmHg 80%
    02:00 +9°C° 0 mm 1 mps 642 mmHg 80%
    03:00 +9°C° 0 mm 1 mps 642 mmHg 80%
    04:00 +9°C° 0 mm 1 mps 642 mmHg 79%
    05:00 +9°C° 0 mm 1 mps 642 mmHg 79%
    06:00 +9°C° 0 mm 1 mps 642 mmHg 78%
    07:00 +12°C° 0 mm 1 mps 643 mmHg 69%
    08:00 +15°C° 0 mm 1 mps 644 mmHg 60%
    09:00 +18°C° 0 mm 1 mps 645 mmHg 50%
    10:00 +20°C° 0 mm 1 mps 645 mmHg 47%
    11:00 +20°C° 0 mm 2 mps 646 mmHg 45%
    12:00 +21°C° 0 mm 2 mps 646 mmHg 42%
    13:00 +21°C° 0 mm 2 mps 645 mmHg 43%
    14:00 +21°C° 0 mm 2 mps 645 mmHg 44%
    15:00 +21°C° 0 mm 2 mps 644 mmHg 45%
    16:00 +19°C° 0 mm 1 mps 643 mmHg 55%
    17:00 +16°C° 0 mm 1 mps 642 mmHg 65%
    18:00 +13°C° 0 mm 1 mps 641 mmHg 76%
    19:00 +13°C° 0 mm 1 mps 641 mmHg 77%
    20:00 +12°C° 0 mm 1 mps 641 mmHg 79%
    21:00 +12°C° 0 mm 1 mps 641 mmHg 81%
    22:00 +12°C° 0 mm 1 mps 641 mmHg 80%
    23:00 +11°C° 0 mm 1 mps 640 mmHg 80%

    28 Septiembre, Viernes

    Tiempo Temperatura Precipitaciones Viento Presión Humedad
    00:00 +11°C° 0 mm 1 mps 640 mmHg 79%
    01:00 +11°C° 0 mm 1 mps 639 mmHg 76%
    02:00 +11°C° 0 mm 1 mps 639 mmHg 73%
    03:00 +11°C° 0 mm 1 mps 639 mmHg 70%
    04:00 +10°C° 0 mm 2 mps 638 mmHg 66%
    05:00 +9°C° 0 mm 2 mps 638 mmHg 63%
    06:00 +9°C° 0 mm 2 mps 638 mmHg 59%
    07:00 +13°C° 0 mm 2 mps 639 mmHg 53%
    08:00 +16°C° 0 mm 1 mps 640 mmHg 47%
    09:00 +19°C° 0 mm 1 mps 641 mmHg 40%
    10:00 +21°C° 0 mm 1 mps 641 mmHg 38%
    11:00 +22°C° 0 mm 1 mps 641 mmHg 35%
    12:00 +23°C° 0 mm 2 mps 642 mmHg 33%
    13:00 +23°C° 0 mm 2 mps 641 mmHg 34%
    14:00 +23°C° 0 mm 2 mps 640 mmHg 35%
    15:00 +21°C° 0 mm 2 mps 640 mmHg 36%
    16:00 +19°C° 0 mm 2 mps 639 mmHg 44%
    17:00 +17°C° 0 mm 2 mps 638 mmHg 52%
    18:00 +14°C° 0 mm 2 mps 637 mmHg 60%
    19:00 +14°C° 0 mm 2 mps 637 mmHg 61%
    20:00 +13°C° 0 mm 2 mps 637 mmHg 63%
    21:00 +12°C° 0 mm 2 mps 637 mmHg 64%
    22:00 +12°C° 0 mm 2 mps 637 mmHg 63%
    23:00 +10°C° 0 mm 2 mps 636 mmHg 62%

    29 Septiembre, Sábado

    Tiempo Temperatura Precipitaciones Viento Presión Humedad
    00:00 +10°C° 0 mm 2 mps 636 mmHg 61%
    01:00 +10°C° 0 mm 2 mps 636 mmHg 63%
    02:00 +10°C° 0 mm 2 mps 636 mmHg 64%
    03:00 +10°C° 0 mm 2 mps 635 mmHg 65%
    04:00 +10°C° 0 mm 2 mps 635 mmHg 67%
    05:00 +10°C° 0 mm 2 mps 635 mmHg 69%
    06:00 +9°C° 0 mm 2 mps 635 mmHg 71%
    07:00 +13°C° 0 mm 1 mps 636 mmHg 63%
    08:00 +16°C° 0 mm 1 mps 637 mmHg 54%
    09:00 +20°C° 0 mm 1 mps 638 mmHg 45%
    10:00 +21°C° 0 mm 1 mps 639 mmHg 42%
    11:00 +22°C° 0 mm 1 mps 639 mmHg 39%
    12:00 +23°C° 0 mm 1 mps 639 mmHg 35%
    13:00 +23°C° 0 mm 1 mps 638 mmHg 37%
    14:00 +22°C° 0 mm 1 mps 638 mmHg 39%
    15:00 +22°C° 0 mm 1 mps 637 mmHg 40%
    16:00 +20°C° 0 mm 1 mps 637 mmHg 47%
    17:00 +18°C° 0 mm 1 mps 636 mmHg 54%
    18:00 +15°C° 0 mm 1 mps 636 mmHg 61%
    19:00 +14°C° 0 mm 1 mps 636 mmHg 64%
    20:00 +13°C° 0 mm 1 mps 636 mmHg 67%
    21:00 +13°C° 0 mm 1 mps 636 mmHg 70%
    22:00 +12°C° 0 mm 1 mps 636 mmHg 71%
    23:00 +12°C° 0 mm 1 mps 636 mmHg 72%

    30 Septiembre, Domingo

    Tiempo Temperatura Precipitaciones Viento Presión Humedad
    00:00 +12°C° 0 mm 1 mps 636 mmHg 74%
    01:00 +11°C° 0 mm 1 mps 636 mmHg 74%
    02:00 +11°C° 0 mm 1 mps 636 mmHg 74%
    03:00 +11°C° 0 mm 1 mps 635 mmHg 75%
    04:00 +11°C° 0 mm 1 mps 636 mmHg 75%
    05:00 +11°C° 0 mm 1 mps 636 mmHg 75%
    06:00 +10°C° 0 mm 1 mps 636 mmHg 76%
    07:00 +13°C° 0 mm 1 mps 637 mmHg 68%
    08:00 +15°C° 0 mm 1 mps 638 mmHg 60%
    09:00 +19°C° 0 mm 1 mps 639 mmHg 52%
    10:00 +20°C° 0.1 mm 1 mps 639 mmHg 49%
    11:00 +20°C° 0.1 mm 1 mps 640 mmHg 47%
    12:00 +20°C° 0.1 mm 2 mps 640 mmHg 44%
    13:00 +20°C° 0.2 mm 2 mps 639 mmHg 46%
    14:00 +19°C° 0.2 mm 2 mps 639 mmHg 48%
    15:00 +19°C° 0.2 mm 2 mps 638 mmHg 50%
    16:00 +17°C° 0.1 mm 2 mps 638 mmHg 57%
    17:00 +15°C° 0.1 mm 2 mps 638 mmHg 63%
    18:00 +13°C° 0.1 mm 2 mps 637 mmHg 69%
    19:00 +13°C° 0 mm 2 mps 637 mmHg 73%
    20:00 +12°C° 0 mm 2 mps 638 mmHg 76%
    21:00 +10°C° 0 mm 2 mps 638 mmHg 79%
    22:00 +9°C° 0 mm 2 mps 637 mmHg 79%
    23:00 +9°C° 0 mm 2 mps 637 mmHg 79%
    Mostrar más